Location: Puketoi
(40.5833°S, 176.0167°E)
Time: 11:19:41
(UTC+00:00)

CZ-2C R/B - Visible Passes

Search period start: 28 September 2023 00:00
Search period end: 08 October 2023 00:00
Orbit: 667 x 781 km, 98.3° (Epoch: 27 September)

Date Brightness Start Highest point End Pass type
(mag) Time Alt. Az. Time Alt. Az. Time Alt. Az.
28 Sep 4.6 14:57:23 16° S 14:57:23 16° S 14:58:18 10° S visible
29 Sep 5.0 14:07:49 16° SSE 14:07:49 16° SSE 14:08:57 10° S visible
29 Sep 4.7 15:47:07 10° SW 15:47:07 10° SW 15:47:14 10° SW visible
30 Sep 4.4 14:57:34 19° S 14:57:34 19° S 14:58:54 10° SSW visible
01 Oct 4.8 14:07:59 18° SSE 14:07:59 18° SSE 14:09:34 10° S visible
01 Oct 4.5 15:47:18 13° SW 15:47:18 13° SW 15:47:50 10° SW visible
02 Oct 4.1 14:57:44 23° S 14:57:44 23° S 14:59:31 10° SSW visible
03 Oct 4.6 14:08:09 21° SSE 14:08:09 21° SSE 14:10:12 10° S visible
03 Oct 4.3 15:47:29 15° SW 15:47:29 15° SW 15:48:25 10° SW visible
04 Oct 3.9 14:57:54 28° S 14:57:54 28° S 15:00:08 10° SSW visible
05 Oct 4.5 14:08:19 23° SE 14:08:19 23° SE 14:10:49 10° S visible
05 Oct 4.1 15:47:38 17° SW 15:47:38 17° SW 15:49:01 10° SW visible
06 Oct 3.6 14:58:03 33° S 14:58:03 33° S 15:00:44 10° SSW visible
07 Oct 4.3 14:08:28 26° SE 14:08:28 26° SE 14:11:27 10° S visible
07 Oct 4.0 15:47:47 20° SW 15:47:47 20° SW 15:49:37 10° SW visible
